Content
SEND FEEDBACK

Daily
Averages
Monthly
Summary
Canada

QUEBEC CITY, QUEBEC


Home > North America > Canada > Quebec
Elevation: 72 meters     Latitude: 46 48N     Longitude: 071 23W

WEATHER
 
SELECT A DAY
Number of Records: 192,604;   Date Range: 6/30/96 - 8/31/14
 
SHARE

PRINT THIS DATA

[ ← Previous Day ]
WEATHER ALMANAC - 1 SEPTEMBER, 2013
[ Next Day → ]
[ °F ]   °C
Weather ElementAverageHighLow
Temperature18.3 °C21 °C (2:00 pm)15 °C (2:00 am)
Dewpoint13.6 °C17 °C (1:00 am)11 °C (5:00 pm)
Humidity74.2 %100 % (2:00 am)46 % (5:00 pm)
Barometer1012.5 hPa1015.2 hPa (10:00 pm)1008.5 hPa (2:00 am)
Wind Speed14.8 km/h25.9 km/h (1:00 pm)
Wind Gust35.2 km/h (3:00 pm)
Weather ElementAverage
Visibility33.8 km
Wind DirectionESE (106.9 °)

Weather ElementTotal
Precipitation---
Heating Degree Days0.3 (Base 18.3)
Growing Degree Days8 (Base 10)
Averaged from 29 records on 1 September, 2013
WEATHER CONDITIONS BREAKOUT
WIND DIRECTION BREAKOUT
WEATHER BY HOUR - 1 SEPTEMBER, 2013
[ °F ]   °C
Local TimeTemperatureDewpointHumidityBarometerVisibilityWind DirectionWind SpeedGust SpeedPrecipitationEventsConditions
1:00 AM18 °C17 °C94 %1009.1 hPa24.1 kmCalmScattered Clouds
2:00 AM15 °C15 °C98 %1008.5 hPaNNW (340°)3.7 km/h
2:00 AM16 °C16 °C100 %1009.1 hPa24.1 kmNW (320°)3.7 km/hClear
3:00 AM17 °C16 °C94 %1009.5 hPa24.1 kmNorth (10°)3.7 km/hPartly Cloudy
4:00 AM17 °C16 °C94 %1009.8 hPa24.1 kmNNE (30°)9.3 km/hPartly Cloudy
5:00 AM15.6 °C14.4 °C93 %1009.5 hPaNNW (330°)3.7 km/h
5:00 AM16 °C15 °C94 %1010.2 hPa24.1 kmNNW (330°)9.3 km/hPartly Cloudy
6:00 AM16 °C15 °C94 %1011.5 hPa19.3 kmNorth (350°)3.7 km/hMostly Cloudy
7:00 AM17 °C15 °C88 %1011.9 hPa32.2 kmCalmMostly Cloudy
8:00 AM17.8 °C15.6 °C84 %1011.2 hPaNE (50°)1.9 km/h
8:00 AM18 °C16 °C88 %1012.2 hPa32.2 kmNE (40°)11.1 km/hMostly Cloudy
9:00 AM20 °C16 °C78 %1012.5 hPa32.2 kmENE (60°)16.7 km/hMostly Cloudy
10:00 AM20 °C14 °C68 %1013.5 hPa40.2 kmENE (60°)16.7 km/hMostly Cloudy
11:00 AM20 °C14 °C68 %1013.9 hPa40.2 kmEast (90°)18.5 km/hMostly Cloudy
11:00 AM20 °C14.4 °C63 %1012.9 hPaEast (90°)16.7 km/h
12:00 PM20 °C13 °C64 %1013.9 hPa40.2 kmEast (90°)22.2 km/hMostly Cloudy
1:00 PM20 °C12 °C60 %1014.2 hPa40.2 kmENE (70°)25.9 km/hMostly Cloudy
2:00 PM20 °C12.2 °C52 %1013.9 hPaEast (80°)16.7 km/h
2:00 PM21 °C12 °C56 %1014.6 hPa40.2 kmENE (70°)24.1 km/hMostly Cloudy
3:00 PM20 °C12 °C60 %1014.2 hPa48.3 kmEast (90°)22.2 km/h35.2 km/hMostly Cloudy
4:00 PM20 °C12 °C60 %1014.2 hPa48.3 kmENE (70°)20.4 km/h31.5 km/hMostly Cloudy
5:00 PM20 °C11 °C56 %1014.2 hPa48.3 kmENE (70°)24.1 km/h35.2 km/hMostly Cloudy
5:00 PM20 °C11.1 °C46 %1013.2 hPaEast (80°)18.5 km/h
6:00 PM19 °C11 °C60 %1014.6 hPa48.3 kmENE (60°)22.2 km/h35.2 km/hMostly Cloudy
7:00 PM18 °C11 °C64 %1014.6 hPa48.3 kmENE (70°)20.4 km/h31.5 km/hMostly Cloudy
8:00 PM18 °C11 °C64 %1014.9 hPa24.1 kmENE (70°)18.5 km/h35.2 km/hMostly Cloudy
9:00 PM17 °C11 °C68 %1014.9 hPa24.1 kmENE (60°)25.9 km/hScattered Clouds
10:00 PM17 °C12 °C72 %1015.2 hPa24.1 kmENE (60°)25.9 km/hScattered Clouds
11:00 PM17 °C12 °C72 %1015.2 hPa24.1 kmENE (60°)24.1 km/hScattered Clouds
Hourly data recorded from CYQB, located 0 kilometers away from Quebec City, Quebec







STORIES FROM OUR PARTNERS